Location: Newark
(35.8833°N, 14.5000°E)
Time: 05:52:24
(UTC+00:00)

A-11 Canister half - Visible Passes

Search period start: 17 November 2019 00:00
Search period end: 27 November 2019 00:00
Orbit: 1527 x 1682 km, 47.3° (Epoch: 14 November)

Date Brightness Start Highest point End Pass type
(mag) Time Alt. Az. Time Alt. Az. Time Alt. Az.
17 Nov 9.0 17:34:27 10° WNW 17:44:01 81° SW 17:51:20 19° SE visible
17 Nov 10.5 19:41:09 10° WNW 19:47:57 23° SW 19:49:44 22° SW visible
18 Nov 9.0 17:12:47 10° WNW 17:22:24 85° SW 17:31:44 10° SE visible
18 Nov 10.5 19:19:18 10° WNW 19:26:23 25° SW 19:30:36 18° SSW visible
19 Nov 9.0 16:51:08 10° WNW 17:00:47 88° SW 17:10:08 10° SE visible
19 Nov 10.5 18:57:29 10° WNW 19:04:50 26° SW 19:11:51 11° S visible
20 Nov 9.0 16:29:27 10° NW 16:39:08 89° NNE 16:48:32 10° SE visible
20 Nov 10.5 18:35:41 10° WNW 18:43:16 28° SW 18:50:46 10° S visible
21 Nov 9.1 16:07:47 10° NW 16:17:30 86° NE 16:26:54 10° SE visible
21 Nov 10.5 18:13:53 10° WNW 18:21:43 30° SW 18:29:26 10° S visible
22 Nov 10.5 17:52:07 10° WNW 18:00:09 32° SW 18:08:03 10° S visible
23 Nov 10.4 17:30:21 10° WNW 17:38:35 34° SW 17:46:40 10° S visible
24 Nov 10.4 17:08:35 10° WNW 17:17:00 36° SW 17:25:15 10° SSE visible
25 Nov 10.4 16:46:51 10° WNW 16:55:26 39° SW 17:03:50 10° SSE visible
26 Nov 10.4 16:25:06 10° WNW 16:33:51 41° SW 16:42:24 10° SSE visible
